Los Alamos, NM

10:11 AM MDT on September 25, 2016 (GMT -0600)
Los Alamos

Weather History for KLAM - October, 2012

Change the Weather History Date:

Tuesday, October 9, 2012

  Actual Average Record
Temperature  
Mean Temperature 60 °F -  
Max Temperature 72 °F 63 °F 78 °F (1950)
Min Temperature 49 °F 39 °F 26 °F (1990)
Degree Days  
Heating Degree Days 4    
Growing Degree Days 10 (Base 50)    
Moisture  
Dew Point 20 °F    
Average Humidity 21    
Maximum Humidity 32    
Minimum Humidity 12    
Precipitation  
Precipitation 0.00 in - - ()
Sea Level Pressure  
Sea Level Pressure 30.17 in    
Wind  
Wind Speed 5 mph (WSW)    
Max Wind Speed 15 mph    
Max Gust Speed 25 mph    
Visibility 10 miles    
Events      
Averages and records for this station are not official NWS values.
T = Trace of Precipitation, MM = Missing Value Source: NWS Daily Summary

Daily Weather History Graph

Daily Weather History Graph

Search for Another Location

Airport or City:

Trip Planner

Search our weather history database for the weather conditions in past years. The results will help you decide how hot, cold, wet, or windy it might be!

Date:

Astronomy

Oct. 09, 2012 Rise Set
Actual Time 7:07 AM MDT 6:36 PM MDT
Civil Twilight 6:41 AM MDT 7:02 PM MDT
Nautical Twilight 6:11 AM MDT 7:31 PM MDT
Astronomical Twilight 5:42 AM MDT 8:01 PM MDT
Moon 12:57 AM MDT (10/9) 2:55 PM MDT (10/9)
Length of Visible Light 12h 20m
Length of Day
11h 29m
Last Quarter, 36% of the Moon is Illuminated
Oct 9
Last Quarter
Oct 15
New
Oct 21
First Quarter
Oct 29
Full
Nov 6
Last Quarter

Hourly Weather History & Observations

Time (MDT) Temp. Dew Point Humidity Pressure Visibility Wind Dir Wind Speed Gust Speed Precip Events Conditions
12:15 AM 57.7 °F 19.4 °F 23% 30.15 in 10.0 mi SW 5.8 mph - N/A   Clear
12:55 AM 55.6 °F 20.1 °F 25% 30.15 in 10.0 mi Calm Calm - N/A   Clear
1:15 AM 55.4 °F 19.9 °F 25% 30.15 in 10.0 mi Calm Calm - N/A   Clear
1:55 AM 54.3 °F 20.3 °F 26% 30.15 in 10.0 mi Calm Calm - N/A   Clear
2:15 AM 55.2 °F 20.1 °F 25% 30.16 in 10.0 mi Calm Calm - N/A   Clear
2:35 AM 55.4 °F 19.9 °F 25% 30.16 in 10.0 mi WSW 6.9 mph - N/A   Clear
2:55 AM 55.8 °F 20.8 °F 26% 30.16 in 10.0 mi Calm Calm - N/A   Scattered Clouds
3:15 AM 55.8 °F 21.2 °F 26% 30.15 in 10.0 mi SW 5.8 mph - N/A   Clear
3:35 AM 55.4 °F 21.6 °F 27% 30.15 in 10.0 mi SW 5.8 mph - N/A   Clear
3:55 AM 53.1 °F 21.9 °F 30% 30.15 in 10.0 mi SW 8.1 mph - N/A   Scattered Clouds
4:15 AM 55.2 °F 21.2 °F 27% 30.15 in 10.0 mi SW 9.2 mph - N/A   Scattered Clouds
4:35 AM 56.7 °F 21.0 °F 25% 30.15 in 10.0 mi SSW 8.1 mph - N/A   Clear
4:55 AM 57.9 °F 20.3 °F 23% 30.16 in 10.0 mi WSW 4.6 mph - N/A   Clear
5:15 AM 57.6 °F 19.9 °F 23% 30.15 in 10.0 mi SW 8.1 mph - N/A   Clear
5:55 AM 55.6 °F 19.8 °F 25% 30.16 in 10.0 mi WSW 8.1 mph - N/A   Clear
6:15 AM 55.2 °F 19.4 °F 25% 30.16 in 10.0 mi SW 6.9 mph - N/A   Clear
6:35 AM 55.0 °F 19.4 °F 25% 30.15 in 10.0 mi SW 3.5 mph - N/A   Clear
6:55 AM 50.9 °F 20.5 °F 30% 30.17 in 10.0 mi Calm Calm - N/A   Clear
7:15 AM 49.8 °F 20.5 °F 32% 30.17 in 10.0 mi North 3.5 mph - N/A   Clear
7:35 AM 50.4 °F 20.3 °F 31% 30.17 in 10.0 mi Calm Calm - N/A   Clear
7:55 AM 52.3 °F 20.1 °F 28% 30.18 in 10.0 mi NNW 3.5 mph - N/A   Clear
8:15 AM 53.6 °F 21.0 °F 28% 30.19 in 10.0 mi West 3.5 mph - N/A   Clear
8:35 AM 55.2 °F 20.3 °F 26% 30.19 in 10.0 mi Calm Calm - N/A   Clear
8:55 AM 56.3 °F 20.5 °F 25% 30.20 in 10.0 mi NNE 3.5 mph - N/A   Clear
9:15 AM 56.3 °F 21.9 °F 26% 30.20 in 10.0 mi Calm Calm - N/A   Clear
9:35 AM 56.8 °F 22.5 °F 26% 30.21 in 10.0 mi NNE 4.6 mph - N/A   Clear
9:55 AM 57.0 °F 21.2 °F 25% 30.21 in 10.0 mi Calm Calm - N/A   Clear
10:15 AM 57.6 °F 21.6 °F 25% 30.21 in 10.0 mi NNE 4.6 mph - N/A   Clear
10:35 AM 59.2 °F 21.0 °F 23% 30.21 in 10.0 mi East 4.6 mph - N/A   Clear
10:55 AM 61.0 °F 21.0 °F 21% 30.21 in 10.0 mi ENE 6.9 mph - N/A   Clear
11:15 AM 61.3 °F 21.2 °F 21% 30.20 in 10.0 mi East 6.9 mph - N/A   Clear
11:35 AM 61.9 °F 21.6 °F 21% 30.20 in 10.0 mi East 6.9 mph - N/A   Clear
11:55 AM 62.4 °F 22.1 °F 21% 30.19 in 10.0 mi East 6.9 mph - N/A   Clear
12:15 PM 63.5 °F 22.5 °F 21% 30.19 in 10.0 mi SE 5.8 mph - N/A   Clear
12:35 PM 63.9 °F 23.4 °F 21% 30.19 in 10.0 mi East 6.9 mph - N/A   Clear
12:55 PM 64.6 °F 23.4 °F 21% 30.18 in 10.0 mi East 5.8 mph - N/A   Clear
1:15 PM 64.4 °F 23.4 °F 21% 30.18 in 10.0 mi East 5.8 mph - N/A   Clear
1:35 PM 64.4 °F 23.2 °F 21% 30.17 in 10.0 mi ESE 3.5 mph - N/A   Clear
1:55 PM 65.8 °F 23.2 °F 20% 30.16 in 10.0 mi ESE 5.8 mph - N/A   Clear
2:15 PM 66.9 °F 22.3 °F 18% 30.15 in 10.0 mi NNE 3.5 mph - N/A   Clear
2:35 PM 68.5 °F 22.3 °F 17% 30.14 in 10.0 mi ESE 4.6 mph - N/A   Clear
2:55 PM 70.5 °F 18.3 °F 14% 30.13 in 10.0 mi West 10.4 mph 18.4 mph N/A   Clear
3:15 PM 72.0 °F 16.3 °F 12% 30.13 in 10.0 mi West 12.7 mph 25.3 mph N/A   Clear
3:35 PM 69.8 °F 20.5 °F 15% 30.13 in 10.0 mi NW 4.6 mph 20.7 mph N/A   Clear
3:55 PM 72.0 °F 17.8 °F 13% 30.13 in 10.0 mi West 10.4 mph 16.1 mph N/A   Clear
4:15 PM 71.1 °F 17.2 °F 13% 30.13 in 10.0 mi West 15.0 mph 18.4 mph N/A   Clear
4:35 PM 70.9 °F 18.0 °F 13% 30.13 in 10.0 mi WNW 10.4 mph 19.6 mph N/A   Clear
4:55 PM 70.9 °F 18.1 °F 13% 30.13 in 10.0 mi WSW 12.7 mph 16.1 mph N/A   Clear
5:15 PM 70.3 °F 18.3 °F 14% 30.14 in 10.0 mi West 12.7 mph 18.4 mph N/A   Clear
5:35 PM 70.3 °F 18.0 °F 14% 30.15 in 10.0 mi WSW 11.5 mph 18.4 mph N/A   Clear
5:55 PM 69.8 °F 17.8 °F 14% 30.15 in 10.0 mi WSW 11.5 mph 19.6 mph N/A   Clear
6:15 PM 68.7 °F 17.4 °F 14% 30.15 in 10.0 mi WSW 12.7 mph - N/A   Clear
6:35 PM 67.1 °F 16.5 °F 14% 30.16 in 10.0 mi West 13.8 mph 19.6 mph N/A   Clear
6:55 PM 66.6 °F 16.2 °F 14% 30.17 in 10.0 mi West 9.2 mph - N/A   Clear
7:15 PM 64.9 °F 18.1 °F 17% 30.18 in 10.0 mi WSW 6.9 mph - N/A   Clear
7:35 PM 63.9 °F 18.5 °F 17% 30.18 in 10.0 mi SW 9.2 mph - N/A   Clear
7:55 PM 62.6 °F 19.0 °F 19% 30.19 in 10.0 mi SSW 8.1 mph - N/A   Clear
8:15 PM 62.4 °F 19.0 °F 19% 30.19 in 10.0 mi SW 5.8 mph - N/A   Clear
8:35 PM 63.7 °F 19.4 °F 18% 30.20 in 10.0 mi Calm Calm - N/A   Clear
8:55 PM 63.3 °F 19.4 °F 18% 30.21 in 10.0 mi West 8.1 mph - N/A   Clear
9:15 PM 62.4 °F 19.4 °F 19% 30.21 in 10.0 mi West 11.5 mph - N/A   Clear
9:35 PM 63.1 °F 19.4 °F 19% 30.22 in 10.0 mi West 10.4 mph - N/A   Clear
9:55 PM 63.0 °F 19.9 °F 19% 30.22 in 10.0 mi WNW 8.1 mph - N/A   Clear
10:15 PM 63.3 °F 20.3 °F 19% 30.22 in 10.0 mi WNW 6.9 mph - N/A   Clear
10:35 PM 59.9 °F 20.8 °F 22% 30.22 in 10.0 mi SE 5.8 mph - N/A   Clear
10:55 PM 61.2 °F 20.5 °F 21% 30.23 in 10.0 mi Calm Calm - N/A   Clear
11:15 PM 61.2 °F 20.3 °F 21% 30.23 in 10.0 mi Calm Calm - N/A   Clear
11:35 PM 62.2 °F 19.9 °F 20% 30.23 in 10.0 mi Calm Calm - N/A   Clear
11:55 PM 57.9 °F 21.2 °F 24% 30.23 in 10.0 mi WSW 3.5 mph - N/A   Clear